TimePST,TemperatureF,Dew PointF,Humidity,Sea Level PressureIn,VisibilityMPH,Wind Direction,Wind SpeedMPH,Gust SpeedMPH,PrecipitationIn,Events,Conditions,WindDirDegrees,DateUTC
12:15 AM,8.1,2.3,77,-9999,7.0,ESE,4.6,-,N/A,,Overcast,110,2013-12-07 08:15:00
12:35 AM,7.7,2.7,80,-9999,5.0,Calm,Calm,-,N/A,,Overcast,0,2013-12-07 08:35:00
12:55 AM,7.5,2.5,80,-9999,10.0,Calm,Calm,-,N/A,,Overcast,0,2013-12-07 08:55:00
1:15 AM,7.5,2.3,79,-9999,5.0,Calm,Calm,-,N/A,,Overcast,0,2013-12-07 09:15:00
1:35 AM,7.3,1.9,79,-9999,7.0,Calm,Calm,-,N/A,,Overcast,0,2013-12-07 09:35:00
1:55 AM,7.3,1.8,78,-9999,10.0,Calm,Calm,-,N/A,,Overcast,0,2013-12-07 09:55:00
2:15 AM,7.2,1.8,79,-9999,10.0,WNW,3.5,-,N/A,,Overcast,300,2013-12-07 10:15:00
2:35 AM,6.8,0.7,76,-9999,10.0,Calm,Calm,-,N/A,,Overcast,0,2013-12-07 10:35:00
2:55 AM,6.6,-0.2,74,-9999,10.0,Calm,Calm,-,N/A,,Overcast,0,2013-12-07 10:55:00
3:15 AM,6.4,-0.4,74,-9999,10.0,Calm,Calm,-,N/A,,Overcast,0,2013-12-07 11:15:00
3:35 AM,6.3,-0.4,74,-9999,10.0,Calm,Calm,-,N/A,,Overcast,0,2013-12-07 11:35:00
3:55 AM,6.6,-0.2,74,-9999,10.0,Calm,Calm,-,N/A,,Overcast,0,2013-12-07 11:55:00
4:15 AM,6.8,-0.0,74,-9999,10.0,Calm,Calm,-,N/A,,Overcast,0,2013-12-07 12:15:00
4:35 AM,6.8,0.3,75,-9999,10.0,Calm,Calm,-,N/A,,Overcast,0,2013-12-07 12:35:00
4:55 AM,6.6,0.5,76,-9999,10.0,Calm,Calm,-,N/A,,Overcast,0,2013-12-07 12:55:00
5:15 AM,5.9,0.7,79,-9999,7.0,Calm,Calm,-,N/A,,Overcast,0,2013-12-07 13:15:00
5:35 AM,5.4,0.7,81,-9999,5.0,Calm,Calm,-,N/A,,Overcast,0,2013-12-07 13:35:00
5:55 AM,5.0,0.3,81,-9999,7.0,Calm,Calm,-,N/A,,Overcast,0,2013-12-07 13:55:00
6:15 AM,4.1,-2.2,75,-9999,10.0,SW,3.5,-,N/A,,Overcast,230,2013-12-07 14:15:00
6:35 AM,2.8,-3.1,76,-9999,10.0,Calm,Calm,-,N/A,,Overcast,0,2013-12-07 14:35:00
6:55 AM,2.1,-4.4,74,-9999,10.0,SW,4.6,-,N/A,,Overcast,220,2013-12-07 14:55:00
7:15 AM,0.7,-5.3,76,-9999,10.0,SW,5.8,-,N/A,,Scattered Clouds,220,2013-12-07 15:15:00
7:35 AM,0.7,-6.0,74,-9999,10.0,SSW,4.6,-,N/A,,Clear,210,2013-12-07 15:35:00
7:55 AM,-0.6,-7.1,74,-9999,10.0,SSW,3.5,-,N/A,,Clear,210,2013-12-07 15:55:00
8:15 AM,-0.2,-6.9,73,-9999,10.0,SSW,3.5,-,N/A,,Scattered Clouds,210,2013-12-07 16:15:00
8:35 AM,-0.6,-7.2,73,-9999,10.0,SW,4.6,-,N/A,,Mostly Cloudy,230,2013-12-07 16:35:00
8:55 AM,0.9,-6.5,71,-9999,10.0,Calm,Calm,-,N/A,,Mostly Cloudy,0,2013-12-07 16:55:00
9:15 AM,2.5,-5.8,68,-9999,10.0,Calm,Calm,-,N/A,,Overcast,0,2013-12-07 17:15:00
9:35 AM,4.3,-5.8,63,-9999,10.0,Calm,Calm,-,N/A,,Overcast,0,2013-12-07 17:35:00
9:55 AM,5.0,-5.3,63,-9999,10.0,Calm,Calm,-,N/A,,Overcast,0,2013-12-07 17:55:00
10:15 AM,5.5,-4.9,62,-9999,10.0,Calm,Calm,-,N/A,,Overcast,0,2013-12-07 18:15:00
10:35 AM,6.1,-5.1,60,30.06,10.0,Calm,Calm,-,N/A,,Overcast,0,2013-12-07 18:35:00
10:55 AM,5.9,-5.3,60,-9999,10.0,NNW,3.5,-,N/A,,Overcast,330,2013-12-07 18:55:00
11:15 AM,6.1,-5.1,60,-9999,10.0,Calm,Calm,-,N/A,,Scattered Clouds,0,2013-12-07 19:15:00
11:35 AM,6.8,-4.9,59,-9999,10.0,NW,4.6,-,N/A,,Scattered Clouds,320,2013-12-07 19:35:00
11:55 AM,7.0,-4.5,59,-9999,10.0,NW,3.5,-,N/A,,Mostly Cloudy,310,2013-12-07 19:55:00
12:15 PM,7.5,-4.2,59,-9999,10.0,NW,4.6,-,N/A,,Overcast,310,2013-12-07 20:15:00
12:35 PM,7.7,-4.2,58,-9999,10.0,NNW,3.5,-,N/A,,Overcast,330,2013-12-07 20:35:00
12:55 PM,7.7,-3.8,59,-9999,10.0,Calm,Calm,-,N/A,,Overcast,0,2013-12-07 20:55:00
1:15 PM,7.7,-3.6,60,-9999,10.0,Calm,Calm,-,N/A,,Overcast,0,2013-12-07 21:15:00
1:35 PM,7.9,-4.0,58,-9999,10.0,Calm,Calm,-,N/A,,Overcast,0,2013-12-07 21:35:00
1:55 PM,7.7,-4.0,59,-9999,10.0,Calm,Calm,-,N/A,,Overcast,0,2013-12-07 21:55:00
2:15 PM,8.2,-3.5,59,-9999,10.0,Calm,Calm,-,N/A,,Overcast,0,2013-12-07 22:15:00
2:35 PM,8.6,-2.6,61,-9999,10.0,North,6.9,-,N/A,,Overcast,360,2013-12-07 22:35:00
2:55 PM,8.1,-2.4,62,-9999,10.0,North,5.8,-,N/A,,Overcast,350,2013-12-07 22:55:00
3:15 PM,6.8,-3.5,63,-9999,10.0,North,4.6,-,N/A,,Mostly Cloudy,360,2013-12-07 23:15:00
3:35 PM,4.8,-4.4,66,-9999,10.0,NNE,3.5,-,N/A,,Scattered Clouds,30,2013-12-07 23:35:00
3:55 PM,4.5,-4.2,67,-9999,10.0,Calm,Calm,-,N/A,,Clear,0,2013-12-07 23:55:00
4:15 PM,5.0,-3.5,68,-9999,10.0,ESE,3.5,-,N/A,,Mostly Cloudy,110,2013-12-08 00:15:00
4:35 PM,4.1,-3.3,71,-9999,10.0,ESE,5.8,-,N/A,,Overcast,120,2013-12-08 00:35:00
4:55 PM,3.7,-2.9,74,-9999,10.0,East,4.6,-,N/A,,Scattered Clouds,100,2013-12-08 00:55:00
5:15 PM,3.0,-3.5,74,-9999,10.0,ESE,4.6,-,N/A,,Scattered Clouds,110,2013-12-08 01:15:00
5:35 PM,3.4,-3.5,73,-9999,10.0,SE,5.8,-,N/A,,Overcast,130,2013-12-08 01:35:00
5:55 PM,4.1,-2.7,73,-9999,10.0,ESE,4.6,-,N/A,,Overcast,120,2013-12-08 01:55:00
6:15 PM,4.3,-2.2,75,-9999,7.0,ESE,5.8,-,N/A,,Overcast,120,2013-12-08 02:15:00
6:35 PM,4.8,-1.8,74,-9999,10.0,ESE,6.9,-,N/A,,Overcast,120,2013-12-08 02:35:00
6:55 PM,5.0,-2.0,73,-9999,10.0,ESE,8.1,-,N/A,,Overcast,120,2013-12-08 02:55:00
7:15 PM,5.0,-2.2,72,-9999,10.0,ESE,8.1,-,N/A,,Overcast,120,2013-12-08 03:15:00
7:35 PM,4.8,-2.6,72,-9999,10.0,ESE,8.1,-,N/A,,Overcast,120,2013-12-08 03:35:00
7:55 PM,4.3,-2.7,73,-9999,10.0,ESE,6.9,-,N/A,,Overcast,120,2013-12-08 03:55:00
8:15 PM,4.3,-1.5,77,-9999,10.0,ENE,8.1,-,N/A,,Overcast,70,2013-12-08 04:15:00
8:35 PM,3.9,-1.3,79,-9999,10.0,East,4.6,-,N/A,,Overcast,80,2013-12-08 04:35:00
8:55 PM,3.9,-1.5,78,-9999,10.0,ENE,5.8,-,N/A,,Overcast,60,2013-12-08 04:55:00
9:15 PM,3.7,-2.2,76,-9999,10.0,ENE,5.8,-,N/A,,Overcast,70,2013-12-08 05:15:00
9:35 PM,3.6,-2.2,77,-9999,10.0,ESE,6.9,-,N/A,,Overcast,110,2013-12-08 05:35:00
9:55 PM,3.6,-2.2,77,-9999,10.0,SE,9.2,-,N/A,,Overcast,130,2013-12-08 05:55:00
10:15 PM,3.2,-2.2,78,-9999,10.0,ESE,6.9,-,N/A,,Overcast,110,2013-12-08 06:15:00
10:35 PM,3.6,-1.5,80,-9999,10.0,SE,10.4,-,N/A,,Overcast,130,2013-12-08 06:35:00
10:55 PM,3.4,-2.2,78,-9999,10.0,ESE,11.5,-,N/A,,Overcast,120,2013-12-08 06:55:00
11:15 PM,3.2,-2.4,78,-9999,10.0,ESE,10.4,-,N/A,,Overcast,120,2013-12-08 07:15:00
11:35 PM,3.2,-2.6,77,-9999,10.0,SE,10.4,-,N/A,,Overcast,130,2013-12-08 07:35:00
11:55 PM,3.2,-2.7,76,-9999,10.0,SE,9.2,-,N/A,,Overcast,130,2013-12-08 07:55:00